Location: Gerlach
(40.6516°N, 119.3568°W)
Time: 05:27:19
(UTC-07:00)

Vanguard 2 Rocket - Pass Details

Date: 29 February 2024
Orbit: 555 x 3307 km, 32.9° (Epoch: 23 April)

Event Time Altitude Azimuth Distance (km) Brightness Sun altitude
Rises 18:40:17 0° 275° (W) 5,393 13.0 -10.6°
Reaches altitude 10° 18:43:45 10° 267° (W) 4,738 12.1 -11.3°
Maximum altitude 18:56:18 37° 208° (SSW) 3,935 10.3 -13.7°
Drops below altitude 10° 19:13:06 10° 150° (SSE) 6,253 10.8 -16.8°
Sets 19:18:39 0° 143° (SE) 7,253 11.1 -17.9°
